Location: Central Falls
(41.8900°N, 71.3929°W)
Time: 16:36:50
(UTC+00:00)

Vanguard 1 - Pass Details

Date: 05 December 2023
Orbit: 653 x 3826 km, 34.3° (Epoch: 24 February)

Event Time Altitude Azimuth Distance (km) Brightness Sun altitude
Rises 23:31:05 0° 249° (WSW) 5,792 15.3 -24.7°
Reaches altitude 10° 23:34:16 10° 246° (WSW) 5,125 14.7 -25.3°
Maximum altitude 23:50:46 67° 169° (S) 3,637 12.7 -28.3°
Enters shadow 00:02:04 39° 104° (ESE) 4,877 13.0 -30.4°
Drops below altitude 10° 00:14:02 10° 94° (E) 6,878 - -32.6°
Sets 00:19:11 0° 92° (E) 7,772 - -33.6°
